User: anonymous
Location: Caltech
(34.1382°N, 118.1253°W)
Time: 00:19:52
(UTC-07:00)
Language:

NOSS 3-2 (A) - Orbit

View from above orbital plane
View from above orbital plane
View from above satellite
View from above satellite

Ground track
Ground track

The orbit data is extracted from the following two-line orbital elements,

1 28095U 03054A   14099.91039611 0.00000000  00000-0  00000-0 0    02
2 28095  63.4290  42.5019 0204000 358.4956   1.5044 13.41278389    07
Epoch (UTC): 09 April 2014 21:50:58
Eccentricity: 0.0204000
inclination: 63.4290°
perigee height: 952 km
apogee height: 1257 km
right ascension of ascending node: 42.5019°
argument of perigee: 358.4956°
revolutions per day: 13.41278389
mean anomaly at epoch: 1.5044°
orbit number at epoch: 0

The dashed part of the orbit path shows where the satellite is in the earth's shadow,  

DLR